Regional Weather Roundup
Issued by NWS

Home | Current Version | Previous Version | Graphics & Text | Print | Product List | Glossary On
Versions: 1 2 3 4 5 6 7 8 9 10 11 12 13 14 15 16 17 18 19 20 21 22 23 24 25 26 27 28 29 30 31 32 33 34 35 36 37 38 39 40 41 42 43 44 45 46 47 48 49 50
000
ASUS43 KLOT 230303
RWRIL

ILLINOIS REGIONAL WEATHER ROUNDUP
NATIONAL WEATHER SERVICE CHICAGO/ROMEOVILLE IL
1000 PM CDT FRI JUL 22 2016

NOTE: "FAIR" INDICATES FEW OR NO CLOUDS BELOW 12,000 FEET WITH NO
SIGNIFICANT WEATHER AND/OR OBSTRUCTIONS TO VISIBILITY.

* THESE STATIONS ARE NOT UNDER NWS QUALITY CONTROL. THEY ALSO MAY NOT
  REPORT WEATHER SUCH AS PRECIPITATION OR FOG.

ILZ001-002-007-009-015-016-024-230400-
NORTHWEST ILLINOIS

CITY           SKY/WX    TMP DP  RH WIND       PRES   REMARKS
MOLINE         PTCLDY    81  76  84 S5        29.97F HX  87
STERLING*      CLEAR     80  78  94 CALM      29.99S HX  88
SAVANNA*       MOCLDY    78  76  94 CALM      29.98S HX  81
$$

ILZ003-004-008-010-011-017-018-230400-
NORTH CENTRAL ILLINOIS

CITY           SKY/WX    TMP DP  RH WIND       PRES   REMARKS
ROCKFORD       PTCLDY    82  76  81 SW5       30.00R HX  89
FREEPORT*      CLEAR     77  74  91 SW5       30.01R
ROCHELLE*      CLEAR     78  76  95 W5        30.01R HX  80
DE KALB*       CLEAR     80  76  86 CALM      30.01S HX  86
$$

ILZ005-006-012>014-019>023-230400-
NORTHEAST ILLINOIS

CITY           SKY/WX    TMP DP  RH WIND       PRES   REMARKS
CHICAGO-OHARE  MOCLDY    86  74  67 CALM      29.98R HX  94
CHICAGO-MIDWAY PTCLDY    86  71  60 E6        29.97S HX  91
AURORA         CLOUDY    81  77  88 CALM      30.00S HX  88
LANSING*       CLEAR     77  73  87 CALM      29.99S
WAUKEGAN       CLEAR     76  72  87 CALM      29.98R
DUPAGE AIRPORT CLEAR     80  74  81 W3        29.99R HX  85
WHEELING       CLEAR     82  72  71 CALM      29.99R HX  87
MORRIS*        CLOUDY    79  76  90 W3        29.99R HX  83
NORTHERLY ISL    N/A     78  70  76 S3          N/A  HX  80
$$

LMZ740>746-230400-
SOUTHERN LAKE MICHIGAN

STATION/POSITION SKY/WX   TEMP    WIND        PRES    VSBY  WAVE
                          AIR SEA DIR/SP/G                  HT/PER
                          (F)     (DEG/KT/KT) (MB)    (MI)  (FT/S)
SOUTHERN BUOY              74 74  160/  4/  6 1014.2          0
WILMETTE HARBOR            77 75  190/  6/  8   N/A           0
HARRISON CRIB              80     170/  6/  7   N/A
BURNHAM HARBOR             78     160/  3/  4   N/A
CALUMET HARBOR             80      90/  2/  3   N/A
BURNS HARBOR               83     190/  1/  7 1015.6S
MICHIGAN CITY              81      CALM  /  1   N/A
MICHIGAN CITY 6N           80 77   90/  2/  4   N/A           1
ST. JOSEPH                 76 74   CALM  /  2 1014.9R         0
$$

ILZ025>027-034>036-040-047-049-050-058-095>099-230400-
WEST-CENTRAL ILLINOIS

CITY           SKY/WX    TMP DP  RH WIND       PRES   REMARKS
QUINCY         MOCLDY    81  77  88 S7        30.01R HX  88
GALESBURG*     PTCLDY    79  75  89 S3        30.00R HX  82
MACOMB*        PTCLDY    77  76  95 S5        30.03R
JACKSONVILLE*  CLOUDY    79  76  90 CALM      30.03R HX  83
PITTSFIELD*    CLOUDY    79  77  95 S3        30.04R HX  82
$$

ILZ028>032-037-038-041>044-048-051>054-059>061-230400-
CENTRAL ILLINOIS

CITY           SKY/WX    TMP DP  RH WIND       PRES   REMARKS
PONTIAC        CLEAR     78  78  98 CALM      30.02R HX  81
BLOOMINGTON    CLEAR     78  74  87 SW5       30.04R HX  81
DECATUR        CLEAR     79  74  84 SW3       30.03R HX  82
PEORIA         PTCLDY    81  77  88 SW5       30.02R HX  88
LACON*         CLEAR     79  76  92 CALM      29.99S HX  83
LINCOLN*       CLOUDY    79  75  89 CALM      30.02R HX  83
SPRINGFIELD    PTCLDY    79  75  87 CALM      30.03R HX  83
TAYLORVILLE    CLOUDY    75  74  98 CALM      30.03R
$$

ILZ033-039-045-046-055>057-062-063-230400-
EAST-CENTRAL ILLINOIS

CITY           SKY/WX    TMP DP  RH WIND       PRES   REMARKS
CHAMPAIGN      CLEAR     74  72  93 S3        30.03R
MATTOON        CLEAR     77  74  90 CALM      30.03R
PARIS*         CLEAR     73  73 100 CALM      30.05R
$$

ILZ079-100>102-230400-
SOUTHWEST ILLINOIS

CITY           SKY/WX    TMP DP  RH WIND       PRES   REMARKS
ALTON          MOCLDY    75  73  94 CALM      30.04
BELLEVILLE     MOCLDY    77  77  99 CALM      30.02R
CAHOKIA*       CLOUDY    79  74  84 CALM      30.03R HX  82
SPARTA*        CLOUDY    77  74  92 CALM      30.05R
$$

ILZ064>066-069>071-074>076-080>082-084>086-088>090-092>094-230400-
SOUTH-CENTRAL ILLINOIS

CITY           SKY/WX    TMP DP  RH WIND       PRES   REMARKS
CARBONDALE     PTCLDY    77  74  90 CALM      30.03R
CAIRO*         CLOUDY    78  78  99 CALM      30.02S HX  81
EFFINGHAM*     CLEAR     76  76 100 CALM      30.05R
MARION         MOCLDY    77  77 100 CALM      30.04R
MT. VERNON     PTCLDY    75  70  83 CALM      30.05R
CENTRALIA*     PTCLDY    76  75  98 CALM      30.04R
SALEM*         PTCLDY    77  74  91 CALM      30.05R
METROPOLIS*    CLOUDY    78  77  96 CALM      30.03S FOG     HX  81
$$

ILZ067-068-072-073-078-083-087-091-230400-
SOUTHEAST ILLINOIS

CITY           SKY/WX    TMP DP  RH WIND       PRES   REMARKS
LAWRENCEVILLE  CLEAR     77  76  96 CALM      30.03R
FLORA*         CLEAR     77  76  94 CALM      30.04R
FAIRFIELD*     CLEAR     76  75  98 CALM      30.03R
HARRISBURG*    PTCLDY    78  78  98 CALM      30.04R HX  81
ROBINSON*      CLEAR     75  74  99 CALM      30.04R FOG
CARMI*         CLEAR     77  77 100 CALM      30.02R FOG
$$

ABBREVIATIONS USED IN REMARKS
   TC - TEMPERATURE IN CELSIUS
  WCI - WIND CHILL INDEX
   HX - HEAT INDEX
  VSB - VISIBILITY
$$





USA.gov is the U.S. government's official web portal to all federal, state and local government web resources and services.